C/2019 K7 ( Smith )

Japanese version
Home page
Updated on September 17, 2019

---------------------------------------------------------------------

* Profile

Discovery Date May 30, 2019
Magnitude 17.7 mag
Discoverer Ken W. Smith (Asteroid Terrestrial-Impact Last Alert System (ATLAS) search program)

* Pictures

* Orbital Elements

Epoch 2020 May 31.0 TT = JDT 2459000.5
T 2020 June 16.91703 TT                                 Williams
q   4.4746614            (2000.0)            P               Q
z  -0.0004069      Peri.   27.29955     +0.46147601     -0.44593925
 +/-0.0001156      Node   307.92315     -0.88103153     -0.12898986
e   1.0018208      Incl.  103.53499     +0.10403529     +0.88571993
From 178 observations 2019 May 30-Aug. 17, mean residual 0".4.

* Finding Charts

* Magnitudes Graph

        m1 = 6.0 + 5 log d + 10.0 log r

---------------------------------------------------------------------

The orbital elements are published on M.P.E.C. 2019-Q135.
The charts are made with StellaNavigator Ver.10 (AstroArts).
The magnitudes graphs are made with Comet for Windows.

---------------------------------------------------------------------

Copyright(C) Seiichi Yoshida (comet@aerith.net). All rights reserved.